ISARA (43050 NORAD) Tracking and Keplerian Element Data

This shows tracking and keplerian element data for the satellite.

Feedback or suggestion? Click here.




ElementValue
Catalog43050
NameISARA
Epoch Orbit7748
Epoch Day113.87825311
Epoch Year2019
RAAN322.2189
Inclination51.6384
Eccentricity0.0001753
Argument of Perigee345.4045
Mean Anonmoly14.689
Mean Motion15.42744685
Decay Rate4.554E-05
L11 43050U 17071P 19113.87825311 .00004554 00000-0 11179-3 0 9998
L22 43050 51.6384 322.2189 0001753 345.4045 14.6890 15.42744685 77489

Live tracking and technical data element details for ISARA (NORAD 43050). ISARA can be tracked NOW for your location showing map with azimuth and elevation plus other details from your city location.

Track the satellite on the map from your city or location and see movement details for azimuth, elevation, latitude, longitude, range, height, and movement on the map or in text.







IsCatalogInMostPopularTable: catalog: 43050, numindb: 201
Update: records affected: 1



GetName: 43050 ISARA

Hit Count: updated at: Wed, 24 Apr 2019 18:00:01 GMT